Weather

Vsebine: Paragliding sitesCurrent conditionsCurrent conditions (amateur)Radar rainfal imageMeteo stationsPanoramic cameras


Current conditions (official report)

Show amateur stations

Click on a specific station to see its location

Location Weather conditions Temperature Wind Air pressure Last updated Geopedia
    °C direction speed (m/s) gusts (m/s) hPa    
Babno Polje 13   - - 2017-06-25 05:22:00
Babno Polje (756 m) 5   - - 2016-01-12 07:40:00
Bilje Nova Gorica 21   1 2 1013 2017-06-25 05:22:00
Bilje pri Novi Gorici 21   1 - 1012 2017-06-25 05:22:00
Blegoš 17   - - 2017-06-25 05:22:00
Bohinjska Češnjica 19   - - 2017-06-25 05:22:00
Boršt Gorenja vas 19   1 2 1013 2017-06-25 05:06:00
Bovec 20   1 2 1014 2017-06-25 05:06:00
Breginj 20   - - 2017-06-25 05:22:00
Bukovski vrh 19   - - 2017-06-25 05:22:00
Celje 22   2 - 1013 2017-06-25 05:22:00
Cerkniško jezero 17   - - 2017-06-25 05:22:00
Črnomelj 24   1 - 1013 2017-06-25 05:22:00
Davča 19   - - 2017-06-25 05:22:00
Dobliče Črnomelj 24   1 6 1013 2017-06-25 05:02:00
Dolenje Ajdovščina 21   - - 2017-06-25 05:03:00
Gačnik 18   1 3 2017-06-25 05:22:00
Godnje 22   2 4 2017-06-25 05:22:00
Gornji Grad 19   - - 2017-06-25 05:22:00
Hočko Pohorje 22   - - 2017-06-25 05:22:00
Hrastnik 21   - 1 1013 2017-06-25 05:05:00
Idrija 19   - - 2017-06-25 05:22:00
Ilirska Bistrica 17   1 1 2017-06-25 05:06:00
Iskrba 14   - 1 2017-06-25 05:23:00
Jeronim 19   - - 2017-06-25 05:23:00
Jeruzalem 19   - - 2017-06-25 05:23:00
Jezersko 14   - - 2017-06-25 05:23:00
Juršče   - - 2016-09-13 14:33:00
Kamniška Bistrica 17   - - 2017-06-25 05:23:00
Kanin 12   - - 2017-06-25 05:23:00
Katarina nad Ljubljano 29   1 - 2017-06-24 14:32:00
Kočevje 17   1 2 2017-06-25 05:23:00
Koper Kapitanija 26   - - 1012 2017-06-25 05:05:00
Korensko sedlo 16   - - 2017-06-25 05:23:00
Kraj. park Goričko 10   3 5 2017-03-24 09:06:00
Kranj 20   - - 2017-06-25 05:23:00
Kredarica 12   2 3 2017-06-25 05:23:00
Krn 20   - - 2017-06-25 05:23:00
Krško 21   1 2 1013 2017-06-25 05:23:00
Krvavec 14   3 5 2017-06-25 05:23:00
Kubed 22   - - 2017-06-25 05:23:00
Kum 18   4 7 2017-06-25 05:23:00
Lendava 21   1 6 1013 2017-06-25 05:04:00
Let. E. Rusjana Maribor 20   1 3 1013 2017-06-25 05:04:00
Let. J. Pučnika Lj. 0   2 3 1011 2015-11-26 11:03:00
Let. J. Pučnika Ljubljana 19   - 1 1013 2017-06-25 05:03:00
Letališče Cerklje ob Krki 21   2 - 1013 2017-06-25 05:22:00
Letališče Edvarda Rusjana Maribor 20   1 - 1013 2017-06-25 05:22:00
Letališče Jožeta Pučnika Ljubljana 19   - - 1013 2017-06-25 05:22:00
Letališče Lesce 18   1 - 1014 2017-06-25 05:22:00
Letališče Portorož 22   - - 1012 2017-06-25 05:22:00
Lisca 20   4 5 2017-06-25 05:23:00
Lisca (943 m) 9   5 12 2016-03-29 14:02:00
Litija 19   - - 2017-06-25 05:23:00
Ljubljana 22   1 - 1013 2017-06-25 05:22:00
Logarska dolina 15   - - 2017-06-25 05:23:00
Logatec 17   - - 2017-06-25 05:23:00
Luka Koper 23   1 2 2017-06-25 05:03:00
Malkovec 22   1 2 1014 2017-06-25 05:05:00
Maribor 19   3 5 2017-06-25 05:23:00
Maribor - Tabor 20   2 4 2017-06-25 05:03:00
Marinča vas 18   - - 2017-06-25 05:22:00
Metlika 20   - - 2017-06-25 05:23:00
Mežica 17   - - 2017-06-25 05:23:00
Miklavž na Gorjancih 20   - - 2017-06-25 05:23:00
Murska Sobota   - - 2017-06-24 08:32:00
Nanos 18   1 3 2017-06-25 05:23:00
Nova Gorica 23   - - 2017-06-25 05:05:00
Nova vas - Bloke 15   - - 2017-06-25 05:23:00
Novo mesto 20   1 2 1013 2017-06-25 05:23:00
Osilnica 17   - - 2017-06-25 05:23:00
Otlica 19   1 2 2017-06-25 05:02:00
Otlica (965 m) 7   4 7 2016-03-31 08:24:00
Park Škocj. jame 19   1 3 1014 2017-06-25 05:03:00
Pasja ravan 18   1 3 2017-06-25 05:23:00
Pavličevo sedlo 15   - - 2017-06-25 05:23:00
Piran-ocean. boja 25   3 4 2017-06-25 05:09:00
Planina pod Golico 17   - - 2017-06-25 05:23:00
Podčetrtek 21   1 3 1013 2017-06-25 05:04:00
Podnanos 21   1 2 2017-06-25 05:23:00
Postojna 17   - 1 1014 2017-06-25 05:23:00
Predel 17   - - 2017-06-25 05:23:00
Ptuj 20   1 2 2017-06-25 05:23:00
Ptuj - Terme -2   2 3 2017-01-19 14:35:00
Radegunda 18   - - 2017-06-25 05:22:00
Radenci 19   - - 1013 2017-06-25 05:06:00
Rateče 18   1 - 2017-06-25 05:22:00
Rateče (864 m) 18   1 2 2017-06-25 05:04:00
Ratitovec 16   2 2 2017-06-25 05:23:00
Ravne na Koroškem 17   1 1 2017-06-25 05:05:00
Rogaška Slatina 21   1 2 2017-06-25 05:23:00
Rogla 17   4 5 2017-06-25 05:23:00
Rogla (1492 m) -11   4 7 2016-01-18 10:32:00
Rudno polje 15   - 1 2017-06-25 05:23:00
Rudno polje (1347 m) -2   1 3 2015-10-20 07:36:00
Sevno 21   - - 2017-06-25 05:23:00
Slavnik 20   7 9 2017-06-25 05:23:00
Slovenj Gradec 17   1 - 2017-06-25 05:22:00
Slovenske Konjice 22   - - 2017-06-25 05:23:00
Sviščaki 17   2 2 2017-06-25 05:23:00
Šebreljski vrh 19   - - 2017-06-25 05:23:00
Šmartno pri Slovenj Gradcu 16   1 1 2017-06-25 05:23:00
Tatre 21   - - 2017-06-25 05:23:00
Tolmin - Volče 21   - 1 2017-06-25 05:23:00
Topol 21   - - 2017-06-25 05:23:00
Trebnje 20   - - 2017-06-25 05:23:00
Trije Kralji na Pohorju 19   - - 2017-06-25 05:23:00
Trojane - Limovce 20   - 1 1013 2017-06-25 05:23:00
Uršlja gora 15   3 4 2017-06-25 05:23:00
Vedrijan 24   - - 2017-06-25 05:23:00
Velenje 21   - - 2017-06-25 05:23:00
Velike Lašče 18   - 1 2017-06-25 05:23:00
Vogel 15   1 2 2017-06-25 05:23:00
Vojsko 26   - - 2017-06-24 14:32:00
Vrbanski plato -2   2 3 2016-12-07 11:23:00
Vrhnika 22   1 2 2017-06-25 05:23:00
Vršič 14   - - 2017-06-25 05:23:00
Zadlog 18   - - 2017-06-25 05:22:00
Zelenica 12   - - 2017-06-25 05:23:00
Zgornja Kapla 15   3 4 2017-06-25 05:23:00
Zgornja Radovna 17   - - 2017-06-25 05:23:00
Zgornja Sorica 19   - - 2017-06-25 05:23:00
Source: Slovenian Environmental Agency, meteo.si